Location: Huntsville
(41.2590°N, 111.7678°W)
Time: 07:28:16
(UTC+00:00)

Vanguard 3 - Pass Details

Date: 15 June 2021
Orbit: 508 x 3261 km, 33.4° (Epoch: 29 July)

Event Time Altitude Azimuth Distance (km) Brightness Sun altitude
Rises 20:16:15 0° 267° (W) 3,701 10.7 69.4°
Reaches altitude 10° 20:18:39 10° 258° (WSW) 3,027 10.5 69.2°
Maximum altitude 20:25:32 35° 195° (SSW) 2,371 10.6 68.4°
Drops below altitude 10° 20:36:49 10° 136° (SE) 4,976 11.3 67.0°
Sets 20:42:05 0° 130° (SE) 6,415 11.7 66.3°
